Location: Clarion
(42.7316°N, 93.7330°W)
Time: 22:40:27
(UTC+00:00)

Cosmos 2292 Rocket - Pass Details

Date: 22 April 2026
Orbit: 367 x 1221 km, 83.0° (Epoch: 12 May)

Event Time Altitude Azimuth Distance (km) Brightness Sun altitude
Rises 02:10:33 0° 360° (N) 3,001 7.5 -12.0°
Reaches altitude 10° 02:13:15 10° 10° (N) 1,932 6.4 -12.4°
Maximum altitude 02:16:59 31° 73° (ENE) 908 4.1 -13.0°
Enters shadow 02:18:24 23° 115° (ESE) 1,062 4.1 -13.2°
